Wind_Speed
28 30 32 30 29 30 31 30 29 25 25 23 25 26 28 30 32 34 36 39 41 44 46 48 51 54 57 59 61 64 66 69 70 72 74 75 76 77 77 78 77 76 75 74
30 31 33 31 30 31 31 31 30 27 25 25 26 28 31 33 35 38 40 43 46 48 51 54 57 59 62 64 67 70 72 74 75 77 78 79 79 80 79 78 77 76 75 74
33 31 33 31 31 31 31 30 29 27 27 28 29 32 34 37 39 42 45 48 50 53 56 59 62 65 67 70 72 74 77 78 80 81 81 82 82 80 79 78 76 75 73 72
35 33 32 31 30 30 29 28 28 28 29 31 33 36 38 41 44 47 50 52 56 59 61 64 67 70 72 74 76 78 80 82 83 83 83 82 81 79 77 75 73 71 69 68
36 35 31 29 30 29 29 29 29 31 32 34 37 40 42 46 48 51 54 57 60 63 66 68 71 73 75 77 79 82 83 84 84 83 82 80 78 76 74 72 69 67 66 64
37 35 32 30 30 30 32 32 31 33 36 38 41 44 46 49 52 55 58 61 64 67 70 72 74 77 79 81 83 84 84 84 83 81 80 77 75 72 69 67 65 63 61 59
36 37 34 32 32 32 33 35 35 37 39 42 45 48 51 54 57 60 63 65 68 71 73 75 78 80 82 83 85 85 84 82 80 77 75 73 69 66 64 62 60 57 55 54
36 37 36 35 34 35 36 38 39 41 44 46 49 52 55 58 61 64 67 69 72 74 76 78 80 82 84 84 84 83 81 78 75 72 69 66 63 60 59 57 55 53 51 49
35 36 38 37 37 38 39 42 43 45 48 51 54 57 60 62 65 68 70 72 74 76 78 79 81 83 84 83 82 79 76 72 68 65 62 60 59 56 54 53 52 49 47 45
36 36 39 40 40 41 43 45 47 50 52 55 58 61 64 67 69 71 73 75 77 79 80 80 81 82 81 80 77 74 70 66 62 60 57 55 54 53 51 50 48 46 44 42
38 38 41 42 43 45 47 49 51 54 57 60 63 66 68 70 72 73 75 77 78 80 81 81 81 79 77 74 71 67 63 60 57 56 54 52 50 49 48 46 46 44 42 41
39 39 42 43 45 48 50 52 55 58 61 64 67 69 71 72 73 75 76 78 79 80 79 79 77 74 70 67 65 62 59 56 54 52 51 49 47 45 44 44 44 43 41 40
41 42 44 46 48 50 53 56 59 62 64 67 69 70 72 73 74 76 78 79 79 78 77 75 72 67 64 62 60 58 56 53 51 50 48 46 45 43 41 40 40 41 40 40
43 45 47 49 52 54 57 60 62 65 67 69 70 72 73 75 76 77 77 78 77 75 72 69 66 62 60 58 56 54 52 51 50 48 46 45 43 42 40 39 37 37 38 39
46 48 51 53 56 59 61 63 65 66 68 70 71 73 74 76 76 76 76 75 74 70 67 64 61 58 57 55 53 52 50 49 48 46 45 43 42 41 40 38 37 36 36 36
50 52 55 57 60 62 64 65 66 68 70 71 72 74 75 76 76 75 73 72 69 66 63 60 57 55 54 53 52 50 49 48 46 44 43 42 41 39 38 36 36 35 34 33
54 56 58 60 62 63 65 66 68 69 71 72 73 74 75 75 74 72 70 67 64 62 60 58 55 53 52 52 50 48 47 45 44 43 41 40 39 37 35 35 34 33 33 32
58 60 61 63 64 64 66 67 69 70 71 73 74 74 74 73 72 69 66 63 60 57 56 55 53 51 50 50 48 47 45 44 43 41 39 38 37 35 34 34 34 32 31 31
60 61 62 63 64 65 66 68 69 70 71 72 73 73 71 69 67 65 62 59 56 54 51 51 50 49 48 48 46 45 43 42 41 39 37 36 34 33 34 33 33 32 31 30
61 62 63 63 64 66 67 69 70 71 71 72 71 70 67 64 63 61 58 55 53 52 49 48 47 47 46 45 44 43 42 40 38 36 35 33 32 32 32 32 32 31 30 29
61 62 62 64 65 66 67 69 70 70 70 69 68 66 64 61 59 57 55 51 49 48 46 46 45 45 44 43 42 41 40 38 36 34 32 31 30 30 30 30 30 29 28 26
60 61 63 65 67 67 68 68 69 69 67 65 64 63 61 58 55 53 51 49 46 44 44 43 43 43 42 41 40 39 37 35 33 32 30 29 29 28 29 29 28 27 26 25
61 63 65 66 67 68 67 66 66 66 65 63 61 60 58 55 53 50 46 44 43 42 41 41 42 41 40 39 38 36 34 33 31 29 28 27 27 28 28 27 26 25 24 23
63 65 66 66 67 67 66 65 64 63 62 60 59 57 55 51 48 46 43 41 40 40 40 40 40 40 38 37 35 34 32 31 29 27 26 26 26 27 26 25 24 22 21 20
64 65 65 66 66 65 65 63 61 59 58 56 54 52 50 47 44 41 39 38 38 38 38 39 39 38 36 35 33 32 30 29 27 25 25 25 25 25 24 22 21 19 19 18
64 64 64 64 64 64 63 61 58 55 54 51 47 45 43 41 39 38 37 37 37 38 38 37 37 36 34 33 32 30 28 26 25 24 24 23 23 22 21 20 19 18 17 16
63 63 63 62 61 60 58 56 53 50 48 45 42 39 38 37 36 36 36 36 36 37 36 36 35 34 32 31 29 27 25 24 23 23 22 21 21 21 19 18 17 15 14 14
Wind_Direction
275 279 282 284 285 284 285 286 287 288 285 282 284 288 290 292 293 295 297 299 302 303 304 305 305 304 305 305 305 305 304 304 304 303 303 302 301 300 299 298 297 295 293 290
276 278 280 281 282 281 282 283 285 286 285 285 287 288 289 291 293 295 298 301 303 304 304 304 304 304 305 305 305 305 305 304 304 303 303 302 302 301 300 298 297 295 293 291
276 277 278 280 280 279 279 280 282 284 286 286 287 287 289 292 295 297 300 302 303 303 304 304 305 305 306 306 306 305 305 305 305 304 304 303 303 301 300 298 296 294 293 291
277 277 278 280 278 277 277 278 281 284 285 286 287 289 292 295 297 299 301 302 303 304 305 306 306 306 306 306 306 306 306 306 306 305 305 304 303 301 300 298 296 294 292 291
276 278 276 276 276 276 276 279 283 285 286 287 289 291 294 297 300 302 303 304 304 305 305 306 306 306 306 307 307 307 307 307 307 306 305 304 303 301 300 298 296 294 293 291
276 277 277 275 274 275 277 280 283 285 287 289 291 293 296 298 300 301 302 303 304 305 306 306 306 307 307 308 308 308 308 308 308 307 306 305 303 301 300 298 296 295 294 293
274 275 277 276 276 277 280 283 285 287 288 290 292 295 297 299 301 302 303 305 305 306 307 307 307 308 308 309 309 309 309 309 308 307 306 305 303 302 300 299 298 297 296 295
272 274 276 277 278 280 283 285 287 288 290 292 294 297 299 301 302 304 304 305 306 306 307 308 309 309 309 310 310 310 310 309 309 308 306 305 304 303 302 301 300 299 298 296
270 273 276 278 280 283 285 286 288 290 292 295 297 299 301 302 303 304 305 305 306 307 308 309 310 310 310 310 311 311 311 310 309 308 307 306 305 304 304 303 302 301 299 298
270 272 275 279 282 285 286 288 291 293 295 298 300 301 302 303 304 304 305 306 307 308 309 310 310 310 311 311 312 312 312 311 310 309 308 307 306 305 304 304 303 302 301 299
269 273 277 281 284 286 288 291 294 296 298 299 300 301 302 303 304 305 306 307 308 309 310 310 311 311 311 312 312 312 313 312 311 310 309 308 306 306 306 305 304 303 302 300
271 275 279 283 285 288 291 293 295 296 297 299 300 301 302 303 304 305 306 307 308 309 310 311 311 312 312 312 312 313 314 313 312 311 310 309 308 307 307 307 305 304 303 302
275 278 281 283 286 288 290 292 294 296 297 298 299 300 302 303 304 305 307 308 309 310 311 311 311 312 312 313 313 314 314 314 313 313 312 311 310 308 307 307 306 305 304 304
278 280 283 285 287 289 292 294 295 296 298 299 300 301 302 304 305 306 307 308 309 310 310 311 312 312 312 313 313 314 315 314 314 315 314 312 311 310 309 308 307 306 305 305
279 282 284 287 289 292 293 295 296 297 298 299 300 302 303 304 306 307 308 308 309 310 310 310 311 312 312 313 313 314 315 315 315 315 314 313 312 311 311 310 309 308 308 307
282 285 287 290 292 293 294 295 296 297 298 299 301 302 304 305 306 307 308 308 309 309 309 310 311 311 312 313 313 314 315 315 315 315 314 313 313 313 312 311 311 311 310 309
285 288 290 291 293 294 295 296 297 298 299 300 302 303 304 305 306 307 307 308 308 309 309 310 310 311 312 312 313 314 314 315 315 315 314 314 314 314 313 313 313 313 311 310
288 289 291 292 293 295 296 297 298 299 300 301 302 303 304 305 306 306 306 307 307 307 308 308 309 310 311 312 313 313 313 314 315 314 314 314 314 313 313 314 314 313 313 312
289 290 292 293 294 295 296 297 299 300 301 301 302 303 304 304 305 305 306 306 306 306 306 306 308 309 311 313 313 313 313 314 315 314 313 313 313 313 313 314 314 314 313 312
289 291 292 293 294 296 297 298 299 300 301 301 302 302 303 304 304 304 305 306 305 305 306 307 308 310 311 313 313 313 313 314 313 313 312 312 312 313 314 315 316 316 315 314
290 291 293 294 295 297 298 299 299 300 301 301 302 302 303 303 303 303 304 304 303 303 305 307 308 310 311 312 313 313 313 313 312 312 312 312 312 313 315 316 318 318 318 317
291 292 293 294 296 297 298 299 299 300 301 302 302 302 302 302 302 302 302 302 302 303 305 307 309 310 311 312 313 313 312 312 312 311 311 312 313 314 315 317 319 319 319 320
291 293 294 295 296 297 298 299 299 300 302 302 302 302 302 302 301 301 300 300 301 303 305 307 309 311 312 313 313 313 312 312 311 310 310 311 312 314 316 318 319 319 321 322
292 294 295 296 297 297 298 299 299 300 301 302 302 301 301 300 300 299 300 300 301 303 306 308 310 311 312 313 313 313 313 312 311 310 310 310 312 314 316 318 319 321 323 326
293 295 295 296 296 297 298 299 300 300 300 300 300 300 299 299 298 298 298 299 301 303 306 309 310 311 312 312 313 312 312 311 310 310 309 310 313 315 317 318 320 321 324 328
294 294 295 296 296 297 298 299 300 300 299 299 298 297 296 295 295 296 297 299 301 303 306 308 309 310 311 311 312 311 310 310 310 309 310 311 314 316 316 318 319 321 324 328
292 293 294 295 296 296 297 298 299 299 299 298 297 295 294 293 293 294 296 298 300 303 305 307 308 309 309 310 310 309 308 308 308 309 310 312 315 316 315 315 317 319 323 329
Height
5771 5769 5766 5765 5764 5761 5758 5756 5754 5755 5752 5751 5747 5744 5741 5737 5734 5730 5725 5721 5716 5711 5706 5701 5694 5688 5682 5675 5667 5659 5651 5643 5634 5625 5616 5607 5598 5589 5580 5571 5562 5554 5547 5539
5762 5760 5757 5757 5756 5753 5750 5748 5747 5746 5745 5742 5740 5736 5732 5729 5725 5721 5716 5711 5706 5700 5694 5688 5681 5674 5667 5659 5651 5642 5633 5624 5615 5606 5596 5586 5576 5567 5557 5548 5539 5530 5522 5515
5753 5752 5749 5749 5748 5745 5742 5740 5739 5738 5737 5734 5731 5727 5723 5719 5715 5710 5705 5700 5694 5688 5681 5674 5666 5659 5651 5642 5633 5624 5614 5604 5594 5584 5574 5564 5554 5544 5534 5525 5516 5507 5499 5491
5742 5743 5741 5743 5739 5736 5734 5733 5732 5730 5728 5725 5721 5717 5713 5708 5704 5699 5693 5687 5680 5673 5666 5658 5650 5642 5633 5624 5614 5604 5594 5583 5572 5562 5552 5541 5531 5521 5511 5501 5493 5485 5477 5469
5732 5731 5732 5733 5730 5728 5726 5725 5724 5721 5718 5715 5710 5706 5702 5697 5691 5686 5679 5673 5665 5658 5650 5642 5633 5624 5615 5605 5595 5584 5573 5562 5551 5539 5528 5518 5508 5498 5488 5479 5471 5463 5456 5448
5723 5721 5722 5725 5722 5719 5718 5717 5716 5712 5708 5704 5700 5696 5692 5686 5680 5673 5666 5659 5650 5642 5633 5624 5615 5605 5596 5585 5574 5564 5553 5541 5529 5516 5505 5495 5485 5476 5467 5458 5450 5443 5437 5430
5713 5711 5712 5714 5712 5711 5710 5708 5705 5701 5697 5693 5689 5684 5679 5672 5666 5658 5651 5642 5634 5625 5615 5605 5595 5586 5576 5565 5554 5543 5531 5520 5508 5496 5484 5474 5464 5456 5446 5439 5432 5425 5419 5413
5704 5702 5705 5703 5702 5701 5699 5696 5693 5689 5685 5681 5676 5671 5664 5657 5650 5642 5634 5626 5617 5608 5598 5587 5575 5565 5556 5545 5534 5523 5512 5501 5489 5477 5466 5455 5446 5438 5430 5422 5416 5410 5404 5399
5696 5696 5693 5692 5690 5689 5687 5684 5680 5676 5672 5667 5662 5656 5649 5642 5634 5626 5618 5608 5599 5590 5581 5570 5556 5544 5534 5524 5513 5503 5493 5481 5470 5460 5450 5439 5430 5423 5416 5408 5401 5396 5390 5386
5686 5685 5682 5680 5679 5677 5674 5670 5667 5662 5658 5652 5646 5640 5633 5626 5618 5609 5600 5591 5581 5572 5563 5553 5540 5527 5513 5503 5493 5484 5474 5464 5454 5444 5436 5427 5417 5409 5402 5395 5389 5383 5378 5374
5675 5674 5671 5670 5667 5664 5660 5657 5652 5648 5642 5637 5631 5624 5617 5609 5601 5592 5583 5573 5563 5553 5543 5533 5522 5510 5497 5485 5475 5467 5458 5449 5439 5430 5421 5414 5406 5398 5390 5384 5377 5372 5367 5362
5665 5664 5661 5659 5655 5651 5648 5644 5639 5634 5628 5622 5615 5608 5601 5593 5584 5575 5566 5556 5546 5535 5524 5514 5503 5493 5482 5471 5461 5451 5443 5435 5426 5417 5409 5401 5394 5388 5381 5374 5367 5361 5355 5351
5653 5652 5650 5647 5643 5640 5636 5631 5626 5620 5614 5607 5599 5592 5584 5576 5567 5557 5547 5537 5527 5517 5506 5496 5486 5477 5467 5457 5448 5439 5430 5422 5414 5406 5398 5390 5383 5377 5371 5366 5359 5352 5346 5341
5641 5639 5637 5634 5630 5626 5621 5616 5610 5604 5597 5590 5582 5575 5567 5559 5550 5539 5529 5519 5509 5499 5489 5479 5470 5462 5452 5444 5436 5427 5418 5410 5402 5395 5387 5380 5373 5367 5360 5355 5351 5345 5338 5332
5629 5626 5623 5619 5615 5611 5605 5600 5594 5587 5580 5573 5565 5557 5548 5540 5531 5522 5511 5501 5492 5483 5473 5464 5456 5448 5440 5431 5423 5416 5407 5399 5392 5385 5377 5370 5364 5357 5351 5346 5340 5335 5330 5324
5615 5612 5608 5604 5600 5595 5589 5583 5577 5570 5563 5555 5548 5539 5530 5521 5513 5504 5494 5483 5474 5467 5458 5450 5443 5435 5427 5419 5412 5404 5397 5389 5381 5375 5368 5361 5355 5349 5343 5337 5332 5326 5321 5315
5600 5597 5593 5588 5583 5578 5572 5566 5559 5552 5545 5537 5529 5521 5512 5503 5495 5487 5478 5469 5460 5451 5443 5436 5429 5423 5415 5408 5400 5393 5386 5379 5372 5365 5358 5352 5346 5340 5335 5329 5324 5318 5313 5307
5584 5580 5576 5572 5566 5561 5555 5548 5541 5534 5526 5518 5510 5502 5494 5485 5476 5469 5462 5454 5447 5440 5431 5423 5417 5411 5404 5397 5390 5383 5376 5369 5363 5356 5350 5344 5338 5332 5327 5322 5316 5311 5306 5300
5568 5564 5559 5554 5549 5543 5537 5530 5523 5515 5507 5498 5490 5483 5476 5468 5459 5452 5445 5439 5432 5426 5420 5413 5406 5399 5393 5386 5379 5372 5366 5360 5354 5347 5341 5336 5330 5325 5320 5314 5309 5303 5298 5293
5551 5546 5541 5536 5530 5524 5518 5511 5504 5497 5489 5480 5472 5465 5459 5453 5444 5437 5431 5425 5418 5411 5406 5401 5394 5388 5382 5376 5369 5363 5356 5351 5345 5339 5334 5328 5323 5318 5313 5308 5302 5296 5291 5286
5533 5529 5523 5518 5512 5506 5499 5492 5484 5478 5471 5463 5454 5447 5442 5436 5430 5422 5416 5412 5407 5399 5394 5389 5383 5377 5371 5365 5359 5353 5347 5342 5336 5331 5326 5321 5316 5312 5307 5301 5296 5290 5285 5280
5516 5511 5505 5499 5493 5488 5482 5474 5466 5458 5453 5447 5439 5431 5425 5420 5414 5409 5403 5397 5393 5388 5383 5378 5372 5367 5361 5355 5350 5344 5338 5333 5328 5323 5319 5314 5310 5305 5301 5295 5290 5285 5280 5275
5498 5492 5487 5481 5474 5468 5464 5457 5449 5441 5435 5429 5422 5415 5409 5404 5399 5394 5390 5386 5381 5377 5372 5367 5362 5356 5351 5345 5340 5335 5330 5325 5320 5316 5312 5308 5304 5299 5295 5290 5285 5280 5275 5271
5479 5473 5468 5461 5454 5448 5444 5439 5433 5426 5419 5412 5406 5399 5393 5389 5385 5380 5376 5373 5369 5365 5361 5356 5351 5346 5341 5336 5331 5326 5322 5317 5313 5309 5305 5302 5298 5293 5289 5285 5280 5276 5272 5268
5460 5454 5449 5442 5436 5430 5424 5420 5415 5410 5403 5397 5391 5385 5379 5375 5372 5369 5366 5362 5359 5355 5351 5347 5342 5337 5332 5327 5323 5318 5314 5310 5306 5303 5299 5296 5292 5288 5284 5280 5276 5273 5269 5265
5442 5436 5431 5425 5418 5412 5407 5402 5398 5393 5387 5382 5378 5372 5367 5364 5360 5358 5355 5352 5349 5345 5341 5337 5332 5328 5323 5319 5315 5311 5307 5303 5300 5296 5293 5290 5286 5283 5279 5276 5273 5269 5266 5263
5424 5418 5413 5408 5402 5395 5390 5385 5381 5377 5372 5367 5364 5360 5356 5353 5350 5348 5345 5342 5339 5336 5332 5328 5323 5319 5315 5311 5307 5304 5300 5297 5294 5291 5288 5285 5281 5278 5275 5272 5269 5266 5264 5261